CDT,Max TemperatureF,Mean TemperatureF,Min TemperatureF,Max Dew PointF,MeanDew PointF,Min DewpointF,Max Humidity, Mean Humidity, Min Humidity, Max Sea Level PressureIn, Mean Sea Level PressureIn, Min Sea Level PressureIn, Max VisibilityMiles, Mean VisibilityMiles, Min VisibilityMiles, Max Wind SpeedMPH, Mean Wind SpeedMPH, Max Gust SpeedMPH,PrecipitationIn, CloudCover, Events, WindDirDegrees
2012-4-1,87,70,53,61,47,32,94,55,14,29.74,29.60,29.46,10,10,7,22,13,28,0.00,0,,200
2012-4-2,78,64,51,57,35,21,64,34,23,29.73,29.54,29.46,10,10,7,29,11,43,0.02,0,,193
2012-4-3,53,48,44,48,45,43,100,90,77,29.97,29.88,29.73,10,8,2,24,13,30,0.24,6,,35
2012-4-4,55,48,41,50,43,37,100,86,76,29.97,29.88,29.81,10,10,3,25,13,31,0.05,8,,298
2012-4-5,62,52,41,50,46,41,100,85,63,29.99,29.93,29.86,10,8,3,9,6,,0.00,6,,348
2012-4-6,64,56,48,55,50,46,94,87,68,30.05,30.00,29.90,10,6,0,22,12,26,0.00,7,,148
2012-4-7,62,56,51,55,40,27,100,59,31,30.33,30.17,29.94,10,9,4,25,16,38,0.00,2,,42
2012-4-8,68,50,32,46,39,32,100,66,37,30.39,30.31,30.18,10,10,10,14,6,18,0.00,0,,162
2012-4-9,80,65,50,59,53,45,100,74,30,30.19,30.11,29.99,10,8,2,21,13,28,0.00,3,,178
2012-4-10,77,66,55,61,57,55,100,81,47,30.17,30.10,30.02,10,6,0,21,9,26,0.00,6,,121
2012-4-11,62,56,51,61,53,48,100,88,72,30.16,30.08,30.02,10,7,0,21,14,25,0.21,7,,117
2012-4-12,71,62,53,63,58,54,100,86,68,30.05,29.86,29.69,10,7,2,29,17,33,0.42,5,,155
2012-4-13,73,60,46,54,43,36,94,58,28,29.91,29.81,29.74,10,10,7,10,8,,0.00,0,,197
2012-4-14,82,68,55,63,51,28,100,65,16,29.73,29.57,29.39,10,8,2,29,15,40,0.00,5,,178
2012-4-15,64,53,42,45,34,23,81,49,34,30.01,29.69,29.55,10,10,7,32,15,45,0.00,3,,269
2012-4-16,64,50,35,48,40,34,93,74,42,30.22,30.15,30.02,10,10,4,25,6,34,0.01,2,,204
2012-4-17,71,54,37,50,43,36,100,68,38,30.28,30.17,30.04,10,10,7,24,9,29,0.00,0,,183
2012-4-18,80,63,46,46,42,34,81,47,18,30.06,29.97,29.80,10,10,10,25,15,30,0.00,0,,194
2012-4-19,73,65,57,52,45,34,64,50,34,29.94,29.83,29.72,10,10,10,30,17,36,0.00,2,,348
2012-4-20,66,54,42,46,41,36,93,64,32,30.15,30.08,29.94,10,10,10,21,10,30,0.00,2,,11
2012-4-21,82,60,37,43,40,36,93,54,20,30.13,30.05,30.00,10,10,10,22,10,30,0.00,0,,237
2012-4-22,69,56,42,43,36,32,87,51,25,30.31,30.23,30.14,10,10,10,18,8,25,0.00,0,,51
2012-4-23,78,56,35,45,39,32,93,52,28,30.28,30.16,29.99,10,10,7,18,8,26,0.00,0,,177
2012-4-24,95,72,50,52,41,34,71,41,12,30.02,29.86,29.71,10,10,10,21,11,29,0.00,0,,217
2012-4-25,95,74,53,54,42,34,67,37,12,29.87,29.77,29.73,10,10,10,16,8,18,0.00,0,,318
2012-4-26,86,74,62,63,52,46,88,51,27,29.97,29.88,29.74,10,10,2,28,12,36,0.11,1,,104
2012-4-27,82,70,59,63,50,41,94,55,26,29.76,29.66,29.60,10,9,4,32,18,45,0.00,2,,187
2012-4-28,71,58,44,45,38,30,93,50,25,29.97,29.90,29.75,10,10,10,21,11,26,0.00,0,,40
2012-4-29,78,64,51,55,50,45,94,65,34,30.02,29.94,29.87,10,10,3,31,10,37,0.14,4,,95
2012-4-30,78,66,55,61,57,52,94,78,51,30.04,29.91,29.75,10,10,5,17,11,30,0.21,4,,152